St. Inigoes, MD

1:44 PM EST on November 14, 2019 (GMT -0500)
Webster Naval Outlying Field

Weather History for KNUI - October, 2019

Change the Weather History Date:

Sunday, October 20, 2019

  Actual Average (KNHK) Record (KNHK)
Temperature  
Mean Temperature 62 °F -  
Max Temperature 66 °F 65 °F 83 °F (1984)
Min Temperature 59 °F 49 °F 32 °F (1981)
Degree Days  
Heating Degree Days 2    
Growing Degree Days 12 (Base 50)    
Moisture  
Dew Point 58 °F    
Average Humidity 85    
Maximum Humidity 90    
Minimum Humidity 67    
Precipitation  
Precipitation 2.44 in - - ()
Sea Level Pressure  
Sea Level Pressure 29.84 in    
Wind  
Wind Speed 9 mph (NE)    
Max Wind Speed 20 mph    
Max Gust Speed 37 mph    
Visibility 4 miles    
Events Rain    
Averages and records for this station are not official NWS values.
T = Trace of Precipitation, MM = Missing Value Source: NWS Daily Summary

Daily Weather History Graph

Daily Weather History Graph

Search for Another Location

Airport or City:

Astronomy

Oct. 20, 2019 Rise Set
Actual Time 7:19 AM EDT 6:21 PM EDT
Civil Twilight 6:52 AM EDT 6:48 PM EDT
Nautical Twilight 6:21 AM EDT 7:18 PM EDT
Astronomical Twilight 5:51 AM EDT 7:49 PM EDT
Moon 11:31 PM EDT (10/20) 1:41 PM EDT (10/20)
Length of Visible Light 11h 55m
Length of Day
11h 02m
Waning Gibbous, 59% of the Moon is Illuminated
Oct 20
Waning Gibbous
Oct 21
Last Quarter
Oct 27
New
Nov 4
First Quarter
Nov 12
Full

Hourly Weather History & Observations

Time (EDT) Temp. Dew Point Humidity Pressure Visibility Wind Dir Wind Speed Gust Speed Precip Events Conditions
12:53 AM 62.1 °F 51.1 °F 67% 30.00 in 10.0 mi East 3.5 mph - N/A   Overcast
1:53 AM 61.0 °F 52.0 °F 72% 30.00 in 10.0 mi Calm Calm - N/A   Overcast
2:53 AM 62.1 °F 53.1 °F 72% 29.96 in 10.0 mi Calm Calm - N/A   Overcast
3:53 AM 63.0 °F 54.0 °F 72% 29.93 in 10.0 mi ENE 3.5 mph - N/A   Overcast
4:53 AM 64.0 °F 55.0 °F 73% 29.92 in 10.0 mi NE 4.6 mph - 0.00 in Rain Light Rain
5:53 AM 63.0 °F 55.9 °F 78% 29.94 in 9.0 mi NE 4.6 mph - 0.01 in Rain Light Rain
6:53 AM 62.1 °F 55.9 °F 80% 29.92 in 6.0 mi ENE 6.9 mph - 0.06 in Rain Light Rain
7:53 AM 62.1 °F 57.9 °F 86% 29.92 in 4.0 mi NE 9.2 mph - 0.13 in Rain Rain
8:11 AM 62.1 °F 59.0 °F 90% 29.92 in 3.0 mi NE 9.2 mph - 0.06 in Rain Rain
8:18 AM 62.6 °F 59.0 °F 88% 29.92 in 3.0 mi NE 9.2 mph - N/A Rain Rain
8:53 AM 63.0 °F 60.1 °F 90% 29.92 in 4.0 mi ENE 10.4 mph - 0.12 in Rain Rain
9:01 AM 63.0 °F 59.0 °F 87% 29.91 in 2.5 mi ENE 12.7 mph - 0.02 in Rain Rain
9:12 AM 63.0 °F 59.0 °F 87% 29.91 in 1.5 mi ENE 12.7 mph - 0.06 in Rain Rain
9:23 AM 62.6 °F 59.0 °F 88% 29.90 in 2.0 mi NE 12.7 mph - N/A Rain Rain
9:33 AM 63.0 °F 59.0 °F 87% 29.90 in 2.0 mi NE 13.8 mph - 0.14 in Rain Heavy Rain
9:53 AM 63.0 °F 59.0 °F 87% 29.89 in 2.5 mi NE 13.8 mph 23.0 mph 0.23 in Rain Rain
10:34 AM 63.0 °F 59.0 °F 87% 29.86 in 1.8 mi NE 15.0 mph 26.5 mph 0.22 in Rain Heavy Rain
10:53 AM 63.0 °F 59.0 °F 87% 29.86 in 2.0 mi ENE 19.6 mph 27.6 mph 0.35 in Rain Heavy Rain
11:38 AM 64.0 °F 59.0 °F 84% 29.82 in 1.2 mi ENE 16.1 mph 25.3 mph 0.27 in Rain Heavy Rain
11:53 AM 64.0 °F 60.1 °F 87% 29.82 in 1.8 mi NE 16.1 mph 26.5 mph 0.37 in Rain Heavy Rain
12:53 PM 64.9 °F 61.0 °F 87% 29.77 in 1.8 mi NE 16.1 mph 26.5 mph 0.43 in Rain Heavy Rain
1:08 PM 64.9 °F 61.0 °F 87% 29.77 in 2.5 mi NE 17.3 mph - 0.05 in Rain Rain
1:25 PM 64.9 °F 61.0 °F 87% 29.76 in 1.2 mi NE 15.0 mph 24.2 mph 0.17 in Rain Heavy Rain
1:39 PM 64.9 °F 62.1 °F 90% 29.76 in 2.5 mi NE 15.0 mph 23.0 mph 0.21 in Rain Rain
1:53 PM 66.0 °F 61.0 °F 84% 29.74 in 2.5 mi NE 19.6 mph 29.9 mph 0.27 in Rain Rain
2:25 PM 66.0 °F 61.0 °F 84% 29.71 in 3.0 mi NE 17.3 mph 36.8 mph 0.10 in Rain Rain
2:53 PM 66.0 °F 61.0 °F 84% 29.72 in 10.0 mi NNE 8.1 mph 24.2 mph 0.11 in   Overcast
3:38 PM 64.9 °F 60.1 °F 84% 29.71 in 2.0 mi NNE 13.8 mph 24.2 mph 0.02 in Rain Rain
3:53 PM 64.9 °F 60.1 °F 84% 29.71 in 1.2 mi NNE 13.8 mph 26.5 mph 0.05 in Rain Rain
4:53 PM 64.0 °F 60.1 °F 87% 29.73 in 1.2 mi North 13.8 mph 23.0 mph 0.14 in Rain Rain
5:13 PM 64.0 °F 60.1 °F 87% 29.72 in 1.5 mi NNE 13.8 mph 21.9 mph 0.02 in Rain Light Rain
5:53 PM 63.0 °F 59.0 °F 87% 29.73 in 1.5 mi North 15.0 mph 25.3 mph 0.06 in Rain Light Rain
6:36 PM 62.1 °F 57.9 °F 86% 29.75 in 3.0 mi North 10.4 mph 23.0 mph 0.03 in Rain Light Rain
6:53 PM 62.1 °F 57.9 °F 86% 29.76 in 3.0 mi North 11.5 mph 24.2 mph 0.04 in Rain Light Rain
7:53 PM 61.0 °F 57.0 °F 87% 29.80 in 4.0 mi North 12.7 mph 27.6 mph 0.02 in Rain Light Rain
8:20 PM 61.0 °F 57.0 °F 87% 29.81 in 6.0 mi North 10.4 mph 25.3 mph 0.00 in Rain Light Rain
8:49 PM 60.8 °F 57.2 °F 88% 29.83 in 5.0 mi North 18.4 mph 27.6 mph N/A Rain Light Rain
8:53 PM 61.0 °F 57.0 °F 87% 29.83 in 6.0 mi North 15.0 mph 27.6 mph 0.01 in Rain Light Rain
9:30 PM 61.0 °F 57.0 °F 87% 29.85 in 7.0 mi North 10.4 mph 21.9 mph 0.00 in Rain Light Rain
10:09 PM 59.0 °F 55.9 °F 90% 29.87 in 2.5 mi North 10.4 mph 26.5 mph 0.03 in Rain Light Rain
10:17 PM 59.0 °F 55.9 °F 90% 29.87 in 5.0 mi North 10.4 mph 26.5 mph 0.03 in Rain Light Rain
10:53 PM 59.0 °F 55.0 °F 87% 29.87 in 10.0 mi North 11.5 mph 20.7 mph 0.04 in Rain Light Rain
11:53 PM 59.0 °F 55.9 °F 90% 29.90 in 10.0 mi North 9.2 mph 18.4 mph 0.00 in   Overcast